This is the latest recevied weather packets stored in our database for station/object KC9GSD. If no packets are shown the sender has not sent any weather packets the latest 10 day(s).
| Time | Temp. | Humidity | Pressure | Rain* | Wind** | Luminosity | Snow |
|---|---|---|---|---|---|---|---|
| 1778177865 | 16.67° C | 80% | 1014.1 hPa | 0 mm | - | 950 W/m² | - |
| 1778177562 | 16.67° C | 84% | 1014.1 hPa | 0 mm | - | 157 W/m² | - |
| 1778177258 | 16.67° C | 85% | 1014.4 hPa | 0 mm | - | 266 W/m² | - |
| 1778176955 | 16.67° C | 82% | 1014.5 hPa | 0 mm | - | 220 W/m² | - |
| 1778176650 | 16.11° C | 81% | 1014.4 hPa | 0 mm | - | 328 W/m² | - |
| 1778176348 | 16.11° C | 86% | 1014.4 hPa | 0 mm | - | 401 W/m² | - |
| 1778176045 | 16.11° C | 87% | 1014.2 hPa | 0 mm | - | 155 W/m² | - |
| 1778175743 | 15.56° C | 87% | 1014.4 hPa | 0 mm | - | 246 W/m² | - |
| 1778175440 | 15.56° C | 89% | 1014.6 hPa | 0 mm | - | 168 W/m² | - |
| 1778175137 | 16.11° C | 88% | 1014.6 hPa | 0 mm | - | 111 W/m² | - |
| 1778174834 | 15.56° C | 89% | 1014.7 hPa | 0 mm | - | 291 W/m² | - |
| 1778174531 | 15.56° C | 90% | 1014.6 hPa | 0 mm | - | 219 W/m² | - |
| 1778174230 | 15° C | 91% | 1014.9 hPa | 0 mm | - | 164 W/m² | - |
| 1778173928 | 15° C | 92% | 1014.7 hPa | 0 mm | - | 173 W/m² | - |
| 1778173625 | 15° C | 91% | 1014.8 hPa | 0 mm | - | 129 W/m² | - |
| 1778173322 | 15° C | 91% | 1014.8 hPa | 0 mm | - | 138 W/m² | - |
| 1778173017 | 15° C | 92% | 1014.7 hPa | 0 mm | - | 110 W/m² | - |
| 1778172714 | 14.44° C | 91% | 1014.7 hPa | 0 mm | - | 126 W/m² | - |
| 1778172410 | 15° C | 93% | 1014.5 hPa | 0 mm | - | 179 W/m² | - |
| 1778172107 | 15° C | 92% | 1014.2 hPa | 0 mm | - | 155 W/m² | - |
| 1778171804 | 15° C | 91% | 1014.2 hPa | 0 mm | - | 197 W/m² | - |
| 1778171502 | 15° C | 92% | 1014.1 hPa | 0 mm | - | 257 W/m² | - |
| 1778171198 | 15° C | 92% | 1014.1 hPa | 0 mm | - | 228 W/m² | - |
| 1778170894 | 15° C | 93% | 1014 hPa | 0 mm | - | 304 W/m² | - |
| 1778170590 | 14.44° C | 93% | 1014 hPa | 0 mm | - | 302 W/m² | - |
* Rain latest hour (hover to see other rain measurements)
** Current wind speed in m/s (hover to see current wind gust speed)